This is the latest recevied weather packets stored in our database for station/object KI8L. If no packets are shown the sender has not sent any weather packets the latest 10 day(s).
| Time | Temp. | Humidity | Pressure | Rain* | Wind** | Luminosity | Snow |
|---|---|---|---|---|---|---|---|
| 1777385564 | 15° C | 94% | 1014.3 hPa | 0 mm | - | 180 W/m² | - |
| 1777385262 | 15° C | 94% | 1014.4 hPa | 0 mm | - | 181 W/m² | - |
| 1777384957 | 14.44° C | 95% | 1014.4 hPa | 0 mm | - | 128 W/m² | - |
| 1777384655 | 14.44° C | 94% | 1014.3 hPa | 0 mm | - | 117 W/m² | - |
| 1777384355 | 14.44° C | 95% | 1014.3 hPa | 0 mm | - | 116 W/m² | - |
| 1777384051 | 14.44° C | 95% | 1014.3 hPa | 0 mm | - | 107 W/m² | - |
| 1777383747 | 13.89° C | 94% | 1014.3 hPa | 0 mm | - | 87 W/m² | - |
| 1777383444 | 13.89° C | 96% | 1014.5 hPa | 0 mm | - | 76 W/m² | - |
| 1777383140 | 13.89° C | 95% | 1014.4 hPa | 0 mm | - | 64 W/m² | - |
| 1777382837 | 13.89° C | 95% | 1014.2 hPa | 0 mm | - | 80 W/m² | - |
| 1777382532 | 13.89° C | 96% | 1014.2 hPa | 0 mm | - | 77 W/m² | - |
| 1777382229 | 13.89° C | 94% | 1014.4 hPa | 0 mm | - | 65 W/m² | - |
| 1777381925 | 13.89° C | 95% | 1014.3 hPa | 0 mm | - | 72 W/m² | - |
| 1777381624 | 13.33° C | 95% | 1014.2 hPa | 0 mm | - | 42 W/m² | - |
| 1777381321 | 13.33° C | 95% | 1014 hPa | 0 mm | - | 34 W/m² | - |
| 1777381017 | 13.89° C | 95% | 1014 hPa | 0 mm | - | 61 W/m² | - |
| 1777380714 | 13.89° C | 95% | 1014 hPa | 0 mm | - | 58 W/m² | - |
| 1777380410 | 13.89° C | 95% | 1014.2 hPa | 0 mm | - | 59 W/m² | - |
| 1777380107 | 13.33° C | 96% | 1014 hPa | 0 mm | - | 86 W/m² | - |
| 1777379803 | 13.33° C | 96% | 1013.8 hPa | 0 mm | - | 61 W/m² | - |
| 1777379499 | 13.33° C | 95% | 1013.6 hPa | 0 mm | - | 69 W/m² | - |
| 1777379199 | 13.33° C | 95% | 1014 hPa | 0 mm | - | 94 W/m² | - |
| 1777378895 | 13.33° C | 95% | 1014 hPa | 0 mm | - | 77 W/m² | - |
| 1777378592 | 13.33° C | 96% | 1013.8 hPa | 0 mm | - | 61 W/m² | - |
| 1777378287 | 13.33° C | 96% | 1014 hPa | 0 mm | - | 58 W/m² | - |
* Rain latest hour (hover to see other rain measurements)
** Current wind speed in m/s (hover to see current wind gust speed)